Tracking 26955 objects as of 3-Feb-2023
HD Live streaming from Space Station
objects crossing your sky now

DELTA 1 DEB

Track DELTA 1 DEB now!
10-day predictions


NORAD ID: 21347
Int'l Code: 1975-052BR
Perigee: 873.1 km
Apogee: 1,527.9 km
Inclination: 99.4 °
Period: 109.3 minutes
Semi major axis: 7571 km
RCS: 0.0195 m2 (small)
Launch date: June 12, 1975
Source: United States (US)
Launch site: AIR FORCE WESTERN TEST RANGE (AFWTR)

Note: This is SATELLITE DEBRIS
Your satellite tracking list
Your tracking list is empty




NASA's NSSDC Master Catalog

Two Line Element Set (TLE):
1 21347U 75052BR  23033.62275873  .00003405  00000-0  54661-2 0  9993
2 21347  99.4019 271.0878 0432418  21.9846   5.7753 13.17731032501849
Source of the keplerian elements: AFSPC